Location: White Mills Observatory
(37.5374°N, 86.0303°W)
Time: 17:41:02
(UTC-04:00)

Hubble Space Telescope - Visible Passes

Search period start: 21 August 2017 00:00
Search period end: 31 August 2017 00:00
Orbit: 538 x 542 km, 28.5° (Epoch: 20 August)

Date Brightness Start Highest point End Pass type
(mag) Time Alt. Az. Time Alt. Az. Time Alt. Az.
21 Aug 3.0 04:53:56 16° SE 04:53:56 16° SE 04:55:08 10° ESE visible
21 Aug 2.4 06:29:29 10° WSW 06:32:35 21° S 06:35:41 10° SE visible
22 Aug 3.3 04:44:31 12° SE 04:44:31 12° SE 04:45:00 10° SE visible
22 Aug 2.4 06:19:53 12° SW 06:22:23 19° S 06:25:20 10° SE visible
23 Aug 2.5 06:10:33 14° SW 06:12:10 17° SSW 06:14:54 10° SSE visible
24 Aug 2.6 06:01:19 15° SSW 06:01:57 15° SSW 06:04:21 10° SSE visible
25 Aug 2.9 05:52:12 13° S 05:52:12 13° S 05:53:38 10° S visible
